| time (UTC) | temp F | wind direction | speed MPH | gust MPH | rain 1hr in | rain 24hr in | rain mn in | humidity % | barometer mb |
| 20260906070021 | 60 | 225 | 6.0 | 14.0 | 0.00 | 0.00 | 0.00 | 62 | 1026.1 |
| 20260906065041 | 60 | 225 | 5.0 | 10.0 | 0.00 | 0.00 | 0.00 | 60 | 1026.1 |
| 20260906064016 | 61 | 225 | 6.0 | 10.0 | 0.00 | 0.00 | 0.00 | 60 | 1026.2 |
| 20260906063016 | 61 | 225 | 6.0 | 12.0 | 0.00 | 0.00 | 0.00 | 59 | 1026.2 |
| 20260906062015 | 62 | 225 | 3.0 | 9.0 | 0.00 | 0.00 | 0.00 | 56 | 1026.7 |
| 20260906061016 | 63 | 225 | 3.0 | 8.0 | 0.00 | 0.00 | 0.00 | 54 | 1026.8 |
| 20260906060016 | 63 | 225 | 3.0 | 6.0 | 0.00 | 0.00 | 0.00 | 53 | 1026.9 |
| 20260906055021 | 63 | 203 | 1.0 | 4.0 | 0.00 | 0.00 | 0.00 | 52 | 1027.4 |
| 20260906054021 | 63 | 203 | 2.0 | 5.0 | 0.00 | 0.00 | 0.00 | 53 | 1027.6 |
| 20260906053021 | 63 | 180 | 3.0 | 7.0 | 0.00 | 0.00 | 0.00 | 53 | 1027.6 |
| 20260906052015 | 63 | 225 | 4.0 | 9.0 | 0.00 | 0.00 | 0.00 | 53 | 1027.2 |
| 20260906051015 | 63 | 225 | 5.0 | 10.0 | 0.00 | 0.00 | 0.00 | 54 | 1027.2 |
| 20260906050041 | 63 | 225 | 7.0 | 12.0 | 0.00 | 0.00 | 0.00 | 55 | 1027.1 |
| 20260906045035 | 62 | 225 | 6.0 | 13.0 | 0.00 | 0.00 | 0.00 | 58 | 1027.2 |
| 20260906044015 | 62 | 225 | 6.0 | 13.0 | 0.00 | 0.00 | 0.00 | 58 | 1027.1 |
| 20260906043015 | 62 | 225 | 7.0 | 12.0 | 0.00 | 0.00 | 0.00 | 58 | 1027.1 |
| 20260906042021 | 63 | 203 | 7.0 | 10.0 | 0.00 | 0.00 | 0.00 | 56 | 1026.8 |
| 20260906041015 | 64 | 248 | 4.0 | 8.0 | 0.00 | 0.00 | 0.00 | 53 | 1026.8 |
| 20260906040015 | 63 | 225 | 7.0 | 13.0 | 0.00 | 0.00 | 0.00 | 54 | 1026.9 |
| 20260906035041 | 63 | 225 | 10.0 | 17.0 | 0.00 | 0.00 | 0.00 | 51 | 1026.8 |
| 20260906034021 | 62 | 225 | 6.0 | 14.0 | 0.00 | 0.00 | 0.00 | 52 | 1026.7 |
| 20260906033041 | 62 | 225 | 7.0 | 12.0 | 0.00 | 0.00 | 0.00 | 51 | 1026.3 |
| 20260906032041 | 63 | 225 | 6.0 | 11.0 | 0.00 | 0.00 | 0.00 | 51 | 1025.8 |
| 20260906031021 | 62 | 225 | 7.0 | 11.0 | 0.00 | 0.00 | 0.00 | 51 | 1025.8 |
| 20260906030015 | 62 | 225 | 7.0 | 13.0 | 0.00 | 0.00 | 0.00 | 54 | 1025.8 |
| 20260906025015 | 61 | 225 | 6.0 | 10.0 | 0.00 | 0.00 | 0.00 | 56 | 1025.6 |
| 20260906024021 | 62 | 225 | 5.0 | 8.0 | 0.00 | 0.00 | 0.00 | 54 | 1025.6 |
| 20260906023035 | 63 | 225 | 5.0 | 8.0 | 0.00 | 0.00 | 0.00 | 52 | 1025.7 |
| 20260906022021 | 64 | 225 | 4.0 | 8.0 | 0.00 | 0.00 | 0.00 | 51 | 1025.6 |
| 20260906021020 | 65 | 225 | 5.0 | 11.0 | 0.00 | 0.00 | 0.00 | 51 | 1025.5 |
| 20260906020015 | 65 | 225 | 4.0 | 7.0 | 0.00 | 0.00 | 0.00 | 49 | 1025.5 |
| 20260906015021 | 65 | 203 | 3.0 | 8.0 | 0.00 | 0.00 | 0.00 | 49 | 1025.2 |
| 20260906014015 | 65 | 225 | 5.0 | 10.0 | 0.00 | 0.00 | 0.00 | 51 | 1025.4 |
| 20260906013021 | 65 | 225 | 4.0 | 8.0 | 0.00 | 0.00 | 0.00 | 53 | 1025.4 |
| 20260906012020 | 67 | 225 | 5.0 | 11.0 | 0.00 | 0.00 | 0.00 | 48 | 1025.4 |
| 20260906011015 | 67 | 270 | 11.0 | 13.0 | 0.00 | 0.00 | 0.00 | 45 | 1025.3 |
| 20260906010015 | 68 | 293 | 12.0 | 16.0 | 0.00 | 0.00 | 0.00 | 41 | 1025.3 |
| 20260906005020 | 66 | 203 | 4.0 | 6.0 | 0.00 | 0.00 | 0.00 | 48 | 1025.3 |
| 20260906004101 | 67 | 225 | 4.0 | 8.0 | 0.00 | 0.00 | 0.00 | 46 | 1025.4 |
| 20260906003020 | 68 | 225 | 3.0 | 6.0 | 0.00 | 0.00 | 0.00 | 45 | 1025.5 |
| 20260906002015 | 70 | 225 | 2.0 | 4.0 | 0.00 | 0.00 | 0.00 | 43 | 1025.6 |
| 20260906001021 | 69 | 270 | 3.0 | 7.0 | 0.00 | 0.00 | 0.00 | 40 | 1025.4 |
| 20260906000040 | 69 | 293 | 6.0 | 11.0 | 0.00 | 0.00 | 0.00 | 40 | 1025.5 |
| 20260905235015 | 69 | 315 | 5.0 | 9.0 | 0.00 | 0.00 | 0.00 | 40 | 1025.4 |
| 20260905234020 | 68 | 293 | 12.0 | 17.0 | 0.00 | 0.00 | 0.00 | 42 | 1025.4 |
| 20260905233040 | 69 | 293 | 12.0 | 23.0 | 0.00 | 0.00 | 0.00 | 42 | 1025.3 |
| 20260905232020 | 70 | 270 | 10.0 | 19.0 | 0.00 | 0.00 | 0.00 | 38 | 1025.6 |
| 20260905231021 | 70 | 45 | 6.0 | 20.0 | 0.00 | 0.00 | 0.00 | 38 | 1025.5 |
| 20260905230020 | 72 | 135 | 5.0 | 9.0 | 0.00 | 0.00 | 0.00 | 34 | 1025.6 |
| 20260905225015 | 74 | 113 | 8.0 | 16.0 | 0.00 | 0.00 | 0.00 | 32 | 1025.6 |
| 20260905224020 | 75 | 90 | 3.0 | 8.0 | 0.00 | 0.00 | 0.00 | 30 | 1025.6 |
| 20260905223015 | 75 | 90 | 1.0 | 4.0 | 0.00 | 0.00 | 0.00 | 29 | 1025.6 |
| 20260905222020 | 75 | 45 | 2.0 | 5.0 | 0.00 | 0.00 | 0.00 | 30 | 1025.6 |
| 20260905221020 | 76 | 23 | 2.0 | 8.0 | 0.00 | 0.00 | 0.00 | 29 | 1025.7 |
| 20260905220020 | 76 | 68 | 2.0 | 6.0 | 0.00 | 0.00 | 0.00 | 29 | 1025.8 |
| 20260905215020 | 76 | 90 | 2.0 | 6.0 | 0.00 | 0.00 | 0.00 | 28 | 1025.7 |
| 20260905214022 | 76 | 45 | 2.0 | 6.0 | 0.00 | 0.00 | 0.00 | 29 | 1025.9 |
| 20260905213017 | 75 | 90 | 3.0 | 7.0 | 0.00 | 0.00 | 0.00 | 30 | 1025.9 |
| 20260905212017 | 75 | 45 | 5.0 | 13.0 | 0.00 | 0.00 | 0.00 | 29 | 1025.9 |
| 20260905211022 | 76 | 45 | 4.0 | 11.0 | 0.00 | 0.00 | 0.00 | 30 | 1026.0 |
| 20260905210023 | 77 | 45 | 3.0 | 11.0 | 0.00 | 0.00 | 0.00 | 29 | 1026.1 |
| 20260905205022 | 76 | 45 | 5.0 | 13.0 | 0.00 | 0.00 | 0.00 | 29 | 1026.0 |
| 20260905204017 | 76 | 45 | 4.0 | 12.0 | 0.00 | 0.00 | 0.00 | 29 | 1026.1 |
| 20260905203037 | 75 | 68 | 5.0 | 14.0 | 0.00 | 0.00 | 0.00 | 30 | 1026.0 |
| 20260905202022 | 74 | 45 | 5.0 | 10.0 | 0.00 | 0.00 | 0.00 | 31 | 1025.8 |
| 20260905201037 | 73 | 45 | 6.0 | 13.0 | 0.00 | 0.00 | 0.00 | 31 | 1025.7 |
| 20260905200022 | 73 | 45 | 6.0 | 12.0 | 0.00 | 0.00 | 0.00 | 32 | 1025.7 |
| 20260905195022 | 73 | 45 | 10.0 | 17.0 | 0.00 | 0.00 | 0.00 | 32 | 1025.9 |
| 20260905194017 | 75 | 68 | 7.0 | 15.0 | 0.00 | 0.00 | 0.00 | 31 | 1026.2 |
| 20260905193036 | 73 | 45 | 7.0 | 12.0 | 0.00 | 0.00 | 0.00 | 33 | 1025.9 |
| 20260905192017 | 73 | 45 | 6.0 | 15.0 | 0.00 | 0.00 | 0.00 | 33 | 1026.1 |
| 20260905191056 | 72 | 45 | 9.0 | 18.0 | 0.00 | 0.00 | 0.00 | 33 | 1026.1 |
| 20260905190022 | 73 | 45 | 10.0 | 17.0 | 0.00 | 0.00 | 0.00 | 32 | 1026.0 |
| 20260905185023 | 73 | 45 | 7.0 | 16.0 | 0.00 | 0.00 | 0.00 | 32 | 1026.2 |
| 20260905184042 | 74 | 45 | 7.0 | 19.0 | 0.00 | 0.00 | 0.00 | 33 | 1026.1 |
| 20260905183022 | 73 | 45 | 7.0 | 14.0 | 0.00 | 0.00 | 0.00 | 34 | 1026.1 |
| 20260905182017 | 73 | 68 | 7.0 | 16.0 | 0.00 | 0.00 | 0.00 | 34 | 1026.1 |
| 20260905181017 | 74 | 68 | 7.0 | 14.0 | 0.00 | 0.00 | 0.00 | 33 | 1026.3 |
| 20260905180022 | 74 | 45 | 8.0 | 16.0 | 0.00 | 0.00 | 0.00 | 33 | 1026.3 |
| 20260905175022 | 73 | 45 | 8.0 | 14.0 | 0.00 | 0.00 | 0.00 | 34 | 1026.2 |
| 20260905174042 | 75 | 45 | 8.0 | 14.0 | 0.00 | 0.00 | 0.00 | 31 | 1026.4 |
| 20260905173022 | 78 | 180 | 2.0 | 6.0 | 0.00 | 0.00 | 0.00 | 25 | 1026.9 |
| 20260905172022 | 77 | 158 | 3.0 | 8.0 | 0.00 | 0.00 | 0.00 | 24 | 1026.9 |
| 20260905171022 | 76 | 158 | 3.0 | 6.0 | 0.00 | 0.00 | 0.00 | 25 | 1026.6 |
| 20260905170042 | 76 | 203 | 5.0 | 8.0 | 0.00 | 0.00 | 0.00 | 26 | 1026.4 |
| 20260905165022 | 76 | 225 | 2.0 | 6.0 | 0.00 | 0.00 | 0.00 | 27 | 1026.7 |
| 20260905164022 | 75 | 180 | 6.0 | 10.0 | 0.00 | 0.00 | 0.00 | 28 | 1026.4 |
| 20260905163017 | 75 | 180 | 6.0 | 15.0 | 0.00 | 0.00 | 0.00 | 28 | 1026.4 |
| 20260905162022 | 76 | 180 | 3.0 | 9.0 | 0.00 | 0.00 | 0.00 | 28 | 1026.5 |
| 20260905161022 | 74 | 203 | 5.0 | 12.0 | 0.00 | 0.00 | 0.00 | 30 | 1026.4 |
| 20260905160017 | 73 | 180 | 6.0 | 18.0 | 0.00 | 0.00 | 0.00 | 31 | 1026.4 |
| 20260905155016 | 72 | 203 | 8.0 | 15.0 | 0.00 | 0.00 | 0.00 | 31 | 1026.3 |
| 20260905154022 | 73 | 180 | 7.0 | 12.0 | 0.00 | 0.00 | 0.00 | 31 | 1026.4 |
| 20260905153036 | 72 | 203 | 8.0 | 15.0 | 0.00 | 0.00 | 0.00 | 31 | 1026.2 |
| 20260905152022 | 72 | 203 | 5.0 | 11.0 | 0.00 | 0.00 | 0.00 | 32 | 1026.6 |
| 20260905151022 | 71 | 203 | 5.0 | 10.0 | 0.00 | 0.00 | 0.00 | 33 | 1026.4 |
| 20260905150022 | 70 | 203 | 5.0 | 9.0 | 0.00 | 0.00 | 0.00 | 35 | 1026.5 |
| 20260905145042 | 69 | 203 | 4.0 | 9.0 | 0.00 | 0.00 | 0.00 | 35 | 1026.6 |
| 20260905144022 | 70 | 180 | 4.0 | 7.0 | 0.00 | 0.00 | 0.00 | 35 | 1026.9 |
| 20260905143022 | 69 | 203 | 5.0 | 10.0 | 0.00 | 0.00 | 0.00 | 35 | 1026.7 |
| 20260905142022 | 69 | 203 | 3.0 | 5.0 | 0.00 | 0.00 | 0.00 | 35 | 1026.9 |
| 20260905141022 | 68 | 203 | 4.0 | 6.0 | 0.00 | 0.00 | 0.00 | 36 | 1026.7 |
| 20260905140022 | 67 | 203 | 4.0 | 6.0 | 0.00 | 0.00 | 0.00 | 36 | 1026.5 |
| 20260905135042 | 66 | 203 | 4.0 | 7.0 | 0.00 | 0.00 | 0.00 | 37 | 1026.4 |
| 20260905134022 | 65 | 203 | 4.0 | 8.0 | 0.00 | 0.00 | 0.00 | 37 | 1026.1 |
| 20260905133102 | 65 | 203 | 4.0 | 8.0 | 0.00 | 0.00 | 0.00 | 38 | 1025.9 |
| 20260905132016 | 64 | 225 | 5.0 | 9.0 | 0.00 | 0.00 | 0.00 | 38 | 1025.9 |
| 20260905131022 | 64 | 225 | 4.0 | 10.0 | 0.00 | 0.00 | 0.00 | 39 | 1025.9 |
| 20260905130022 | 63 | 225 | 6.0 | 10.0 | 0.00 | 0.00 | 0.00 | 39 | 1025.8 |
| 20260905125022 | 63 | 225 | 5.0 | 9.0 | 0.00 | 0.00 | 0.00 | 40 | 1025.7 |
| 20260905124041 | 62 | 225 | 5.0 | 9.0 | 0.00 | 0.00 | 0.00 | 39 | 1025.5 |
| 20260905123022 | 63 | 225 | 5.0 | 10.0 | 0.00 | 0.00 | 0.00 | 39 | 1025.5 |
| 20260905122022 | 63 | 225 | 6.0 | 11.0 | 0.00 | 0.00 | 0.00 | 39 | 1025.5 |
| 20260905121021 | 62 | 225 | 5.0 | 9.0 | 0.00 | 0.00 | 0.00 | 39 | 1025.6 |
| 20260905120019 | 62 | 225 | 4.0 | 12.0 | 0.00 | 0.00 | 0.00 | 40 | 1025.6 |
| 20260905115016 | 62 | 225 | 5.0 | 9.0 | 0.00 | 0.00 | 0.00 | 40 | 1025.6 |
| 20260905114022 | 62 | 203 | 4.0 | 8.0 | 0.00 | 0.00 | 0.00 | 39 | 1025.6 |
| 20260905113021 | 62 | 225 | 6.0 | 9.0 | 0.00 | 0.00 | 0.00 | 40 | 1025.6 |
| 20260905112022 | 61 | 225 | 5.0 | 10.0 | 0.00 | 0.00 | 0.00 | 42 | 1025.4 |
| 20260905111022 | 61 | 203 | 6.0 | 9.0 | 0.00 | 0.00 | 0.00 | 44 | 1025.5 |
| 20260905110022 | 61 | 203 | 5.0 | 7.0 | 0.00 | 0.00 | 0.00 | 44 | 1025.5 |
| 20260905105022 | 61 | 225 | 5.0 | 7.0 | 0.00 | 0.00 | 0.00 | 44 | 1025.7 |
| 20260905104021 | 62 | 225 | 5.0 | 8.0 | 0.00 | 0.00 | 0.00 | 44 | 1025.7 |
| 20260905103021 | 62 | 225 | 5.0 | 9.0 | 0.00 | 0.00 | 0.00 | 43 | 1025.6 |
| 20260905102021 | 62 | 225 | 5.0 | 11.0 | 0.00 | 0.00 | 0.00 | 43 | 1025.6 |
| 20260905101021 | 62 | 225 | 5.0 | 9.0 | 0.00 | 0.00 | 0.00 | 44 | 1025.5 |
| 20260905100042 | 62 | 225 | 6.0 | 13.0 | 0.00 | 0.00 | 0.00 | 44 | 1025.5 |
| 20260905095042 | 62 | 225 | 5.0 | 8.0 | 0.00 | 0.00 | 0.00 | 45 | 1025.4 |
| 20260905094021 | 61 | 225 | 6.0 | 11.0 | 0.00 | 0.00 | 0.00 | 46 | 1025.5 |
| 20260905093021 | 61 | 225 | 6.0 | 10.0 | 0.00 | 0.00 | 0.00 | 46 | 1025.2 |
| 20260905092017 | 61 | 248 | 4.0 | 8.0 | 0.00 | 0.00 | 0.00 | 47 | 1025.3 |
| 20260905091021 | 60 | 248 | 4.0 | 6.0 | 0.00 | 0.00 | 0.00 | 48 | 1025.3 |
| 20260905090021 | 61 | 248 | 3.0 | 4.0 | 0.00 | 0.00 | 0.00 | 47 | 1025.2 |
| 20260905085041 | 61 | 225 | 4.0 | 9.0 | 0.00 | 0.00 | 0.00 | 47 | 1025.1 |
| 20260905084021 | 61 | 225 | 5.0 | 10.0 | 0.00 | 0.00 | 0.00 | 47 | 1025.2 |
| 20260905083016 | 61 | 225 | 6.0 | 10.0 | 0.00 | 0.00 | 0.00 | 47 | 1025.2 |
| 20260905082021 | 60 | 225 | 6.0 | 10.0 | 0.00 | 0.00 | 0.00 | 49 | 1025.2 |
| 20260905081021 | 60 | 203 | 5.0 | 7.0 | 0.00 | 0.00 | 0.00 | 50 | 1025.1 |
| 20260905080016 | 58 | 225 | 7.0 | 11.0 | 0.00 | 0.00 | 0.00 | 52 | 1025.1 |
| 20260905075016 | 58 | 203 | 7.0 | 11.0 | 0.00 | 0.00 | 0.00 | 53 | 1024.8 |
| 20260905074021 | 58 | 203 | 6.0 | 10.0 | 0.00 | 0.00 | 0.00 | 52 | 1024.8 |
| 20260905073016 | 58 | 203 | 5.0 | 7.0 | 0.00 | 0.00 | 0.00 | 51 | 1024.8 |
| 20260905072021 | 59 | 225 | 7.0 | 15.0 | 0.00 | 0.00 | 0.00 | 50 | 1025.0 |
| 20260905071021 | 59 | 225 | 8.0 | 14.0 | 0.00 | 0.00 | 0.00 | 50 | 1025.0 |